Weather History for Seward, AK

Change the Weather History Date:

Sunday, November 10, 2013

  Actual Average Record
Temperature  
Mean Temperature 38 °F -  
Max Temperature 39 °F 37 °F 48 °F (1970)
Min Temperature 37 °F 27 °F 10 °F (1989)
Degree Days  
Heating Degree Days 27    
Moisture  
Dew Point 35 °F    
Average Humidity 92    
Maximum Humidity 100    
Minimum Humidity 79    
Precipitation  
Precipitation 0.91 in - - ()
Sea Level Pressure  
Sea Level Pressure 29.87 in    
Wind  
Wind Speed 5 mph (NNW)    
Max Wind Speed 24 mph    
Max Gust Speed 31 mph    
Visibility 8 miles    
Events Rain    
Averages and records for this station are not official NWS values.
T = Trace of Precipitation, MM = Missing Value Source: NWS Daily Summary

Daily Weather History Graph

Daily Weather History Graph

Search for Another Location

Airport:

Trip Planner

Search our weather history database for the weather conditions in past years. The results will help you decide how hot, cold, wet, or windy it might be!

Date:

Astronomy

Nov. 10, 2013 Rise Set
Actual Time 8:44 AM AKST 4:37 PM AKST
Civil Twilight 7:56 AM AKST 5:25 PM AKST
Nautical Twilight 7:05 AM AKST 6:16 PM AKST
Astronomical Twilight 6:16 AM AKST 7:05 PM AKST
Moon 2:25 PM AKST (11/10) No Moon Set
Length of Visible Light 9h 28m
Length of Day
7h 52m
First Quarter, 57% of the Moon is Illuminated
Nov 10
First Quarter
Nov 17
Full
Nov 25
Last Quarter
Dec 2
New
Dec 9
First Quarter

Hourly Weather History & Observations

Time (AKST) Temp. Windchill Dew Point Humidity Pressure Visibility Wind Dir Wind Speed Gust Speed Precip Events Conditions
12:46 AM 39.2 °F 35.0 °F 37.4 °F 93% 30.09 in 7.0 mi NNW 5.8 mph - 0.04 in Rain Light Rain
12:53 AM 39.0 °F 35.7 °F 37.0 °F 93% 30.09 in 8.0 mi North 4.6 mph - 0.04 in Rain Light Rain
1:53 AM 37.9 °F 35.5 °F 37.0 °F 97% 30.07 in 7.0 mi NNW 3.5 mph - 0.05 in Rain Light Rain
3:23 AM 37.4 °F 34.9 °F 35.6 °F 93% 30.05 in 10.0 mi NW 3.5 mph - 0.03 in Rain Light Rain
3:30 AM 37.4 °F 34.9 °F 37.4 °F 100% 30.04 in 10.0 mi NNW 3.5 mph - 0.03 in Rain Light Rain
3:37 AM 37.4 °F 32.8 °F 35.6 °F 93% 30.04 in 10.0 mi NNW 5.8 mph - 0.03 in Rain Light Rain
3:50 AM 37.4 °F 34.9 °F 35.6 °F 93% 30.03 in 10.0 mi NNW 3.5 mph - 0.04 in Rain Light Rain
3:53 AM 37.9 °F 34.4 °F 36.0 °F 93% 30.03 in 10.0 mi NNW 4.6 mph - 0.04 in Rain Light Rain
4:53 AM 37.0 °F 34.5 °F 36.0 °F 96% 30.00 in 10.0 mi North 3.5 mph - 0.01 in Rain Light Rain
5:40 AM 37.4 °F 34.9 °F 35.6 °F 93% 29.97 in 6.0 mi WNW 3.5 mph - 0.03 in Rain Light Rain
5:53 AM 37.0 °F - 36.0 °F 96% 29.97 in 8.0 mi Calm Calm - 0.04 in Rain Light Rain
6:53 AM 37.0 °F 34.5 °F 36.0 °F 96% 29.95 in 10.0 mi NW 3.5 mph - 0.04 in Rain Light Rain
7:22 AM 37.4 °F 34.9 °F 35.6 °F 93% 29.93 in 8.0 mi NNW 3.5 mph - 0.03 in Rain Light Rain
7:46 AM 37.4 °F 34.9 °F 35.6 °F 93% 29.92 in 9.0 mi NW 3.5 mph - 0.05 in Rain Light Rain
7:53 AM 37.0 °F 32.4 °F 36.0 °F 96% 29.91 in 9.0 mi North 5.8 mph - 0.05 in Rain Light Rain
8:53 AM 37.0 °F 33.3 °F 36.0 °F 96% 29.90 in 6.0 mi NNW 4.6 mph - 0.09 in Rain Light Rain
9:07 AM 37.4 °F - 35.6 °F 93% 29.89 in 7.0 mi Calm Calm - 0.02 in Rain Light Rain
9:37 AM 37.4 °F - 35.6 °F 93% 29.88 in 5.0 mi Calm Calm - 0.07 in Rain Rain
9:53 AM 37.0 °F - 36.0 °F 96% 29.88 in 3.0 mi Calm Calm - 0.10 in Rain Rain
10:53 AM 37.0 °F 33.3 °F 35.1 °F 93% 29.86 in 6.0 mi NNW 4.6 mph - 0.08 in Rain Light Rain
11:26 AM 37.4 °F 32.8 °F 35.6 °F 93% 29.84 in 7.0 mi NNW 5.8 mph - 0.03 in Rain Light Rain
11:53 AM 37.0 °F 32.4 °F 35.1 °F 93% 29.83 in 10.0 mi NNW 5.8 mph - 0.04 in Rain Light Rain
12:07 PM 37.4 °F 34.9 °F 35.6 °F 93% 29.83 in 8.0 mi NNW 3.5 mph - 0.00 in Rain Light Rain
12:53 PM 37.0 °F 33.3 °F 35.1 °F 93% 29.81 in 8.0 mi NW 4.6 mph - 0.04 in Rain Light Rain
1:53 PM 37.9 °F - 35.1 °F 89% 29.79 in 10.0 mi Calm Calm - 0.03 in Rain Light Rain
2:53 PM 37.9 °F 35.5 °F 35.1 °F 89% 29.78 in 8.0 mi NNW 3.5 mph - 0.04 in Rain Light Rain
3:53 PM 37.0 °F 34.5 °F 35.1 °F 93% 29.75 in 8.0 mi NW 3.5 mph - 0.03 in Rain Light Rain
4:53 PM 37.0 °F - 35.1 °F 93% 29.74 in 8.0 mi Calm Calm - 0.04 in Rain Light Rain
5:53 PM 37.0 °F - 36.0 °F 96% 29.74 in 10.0 mi North - - 0.02 in Rain Light Rain
6:43 PM 37.4 °F - 35.6 °F 93% 29.73 in 10.0 mi Calm Calm - 0.01 in Rain Light Rain
6:53 PM 37.0 °F - 36.0 °F 96% 29.73 in 10.0 mi Calm Calm - 0.01 in Rain Light Rain
7:53 PM 37.9 °F 34.4 °F 36.0 °F 93% 29.73 in 9.0 mi North 4.6 mph - 0.03 in Rain Light Rain
8:36 PM 37.4 °F 30.8 °F 35.6 °F 93% 29.74 in 10.0 mi North 9.2 mph - 0.03 in Rain Light Rain
8:53 PM 37.0 °F 31.0 °F 35.1 °F 93% 29.74 in 9.0 mi North 8.1 mph - 0.03 in Rain Light Rain
9:22 PM 37.4 °F 32.8 °F 35.6 °F 93% 29.74 in 10.0 mi NNE 5.8 mph - 0.02 in Rain Light Rain
9:53 PM 37.0 °F 28.9 °F 35.1 °F 93% 29.74 in 8.0 mi North 12.7 mph 21.9 mph 0.03 in Rain Light Rain
10:06 PM 39.2 °F 28.5 °F 33.8 °F 81% 29.74 in 7.0 mi North 24.2 mph 31.1 mph 0.01 in   Unknown
10:20 PM 39.2 °F 31.2 °F 33.8 °F 81% 29.74 in 10.0 mi NNW 13.8 mph 28.8 mph 0.01 in Rain Light Rain
10:53 PM 37.9 °F 29.6 °F 32.0 °F 79% 29.76 in 10.0 mi North 13.8 mph 27.6 mph 0.02 in Rain Light Rain
11:53 PM 37.0 °F 28.5 °F 30.9 °F 79% 29.76 in 10.0 mi NNE 13.8 mph 23.0 mph 0.01 in   Overcast